| time (UTC) | temp F | wind direction | speed MPH | gust MPH | rain 1hr in | rain 24hr in | rain mn in | humidity % | barometer mb |
| 20260507192727 | 65 | 0.0 | 5.0 | 0.00 | 0.00 | 0.00 | 70 | 1018.5 | |
| 20260507192219 | 64 | 0.0 | 0.0 | 0.00 | 0.00 | 0.00 | 71 | 1018.2 | |
| 20260507191717 | 64 | 0.0 | 0.0 | 0.00 | 0.00 | 0.00 | 71 | 1017.8 | |
| 20260507191215 | 64 | 0.0 | 0.0 | 0.00 | 0.00 | 0.00 | 73 | 1017.9 | |
| 20260507190712 | 63 | 0.0 | 3.0 | 0.00 | 0.00 | 0.00 | 74 | 1017.9 | |
| 20260507190209 | 63 | 0.0 | 3.0 | 0.00 | 0.00 | 0.00 | 72 | 1017.7 | |
| 20260507185707 | 63 | 0.0 | 2.0 | 0.00 | 0.00 | 0.00 | 74 | 1017.7 | |
| 20260507185205 | 63 | 0.0 | 1.0 | 0.00 | 0.00 | 0.00 | 73 | 1017.8 | |
| 20260507184702 | 63 | 0.0 | 4.0 | 0.00 | 0.00 | 0.00 | 74 | 1018.2 | |
| 20260507184159 | 63 | 0.0 | 4.0 | 0.00 | 0.00 | 0.00 | 74 | 1017.5 | |
| 20260507183657 | 63 | 0.0 | 3.0 | 0.00 | 0.00 | 0.00 | 73 | 1017.6 | |
| 20260507183153 | 63 | 0.0 | 2.0 | 0.00 | 0.00 | 0.00 | 73 | 1017.5 | |
| 20260507182652 | 63 | 0.0 | 2.0 | 0.00 | 0.00 | 0.00 | 72 | 1018.0 | |
| 20260507182149 | 63 | 0.0 | 3.0 | 0.00 | 0.00 | 0.00 | 72 | 1017.9 | |
| 20260507181647 | 63 | 0.0 | 3.0 | 0.00 | 0.00 | 0.00 | 72 | 1017.7 | |
| 20260507181143 | 64 | 0.0 | 2.0 | 0.00 | 0.00 | 0.00 | 71 | 1018.1 | |
| 20260507180642 | 64 | 0.0 | 0.0 | 0.00 | 0.00 | 0.00 | 74 | 1018.2 | |
| 20260507180139 | 64 | 0.0 | 2.0 | 0.00 | 0.00 | 0.00 | 73 | 1018.6 | |
| 20260507175637 | 63 | 0.0 | 2.0 | 0.00 | 0.00 | 0.00 | 74 | 1018.7 | |
| 20260507175133 | 63 | 0.0 | 3.0 | 0.00 | 0.00 | 0.00 | 73 | 1019.1 | |
| 20260507174632 | 63 | 0.0 | 4.0 | 0.00 | 0.00 | 0.00 | 75 | 1018.7 | |
| 20260507174129 | 63 | 0.0 | 4.0 | 0.00 | 0.00 | 0.00 | 75 | 1018.2 | |
| 20260507173627 | 62 | 0.0 | 3.0 | 0.00 | 0.00 | 0.00 | 78 | 1017.7 | |
| 20260507173123 | 62 | 0.0 | 3.0 | 0.00 | 0.00 | 0.00 | 77 | 1017.8 | |
| 20260507172622 | 61 | 0.0 | 3.0 | 0.00 | 0.00 | 0.00 | 78 | 1018.2 | |
| 20260507172119 | 61 | 0.0 | 4.0 | 0.00 | 0.00 | 0.00 | 79 | 1018.4 | |
| 20260507171616 | 61 | 1.0 | 6.0 | 0.00 | 0.00 | 0.00 | 79 | 1018.6 | |
| 20260507171113 | 60 | 0.0 | 3.0 | 0.00 | 0.00 | 0.00 | 82 | 1018.8 | |
| 20260507170611 | 60 | 0.0 | 1.0 | 0.00 | 0.00 | 0.00 | 82 | 1018.0 | |
| 20260507170109 | 60 | 0.0 | 1.0 | 0.00 | 0.00 | 0.00 | 83 | 1017.8 | |
| 20260507165606 | 59 | 0.0 | 3.0 | 0.00 | 0.00 | 0.00 | 83 | 1017.7 | |
| 20260507165103 | 59 | 0.0 | 3.0 | 0.00 | 0.00 | 0.00 | 83 | 1018.0 | |
| 20260507164601 | 60 | 0.0 | 0.0 | 0.00 | 0.00 | 0.00 | 82 | 1018.0 | |
| 20260507164059 | 60 | 0.0 | 0.0 | 0.00 | 0.00 | 0.00 | 81 | 1019.0 | |
| 20260507163556 | 60 | 0.0 | 3.0 | 0.00 | 0.00 | 0.00 | 81 | 1018.9 | |
| 20260507163053 | 60 | 0.0 | 3.0 | 0.00 | 0.00 | 0.00 | 82 | 1019.9 | |
| 20260507162551 | 59 | 0.0 | 0.0 | 0.00 | 0.00 | 0.00 | 81 | 1019.9 | |
| 20260507162051 | 59 | 0.0 | 0.0 | 0.00 | 0.00 | 0.00 | 81 | 1020.2 | |
| 20260507161546 | 59 | 0.0 | 2.0 | 0.00 | 0.00 | 0.00 | 81 | 1020.1 | |
| 20260507161043 | 59 | 0.0 | 2.0 | 0.00 | 0.00 | 0.00 | 81 | 1019.8 | |
| 20260507160541 | 59 | 0.0 | 1.0 | 0.00 | 0.00 | 0.00 | 82 | 1019.5 | |
| 20260507160037 | 59 | 0.0 | 0.0 | 0.00 | 0.00 | 0.00 | 82 | 1019.1 | |
| 20260507155536 | 59 | 0.0 | 4.0 | 0.00 | 0.00 | 0.00 | 82 | 1019.0 | |
| 20260507155033 | 59 | 0.0 | 4.0 | 0.00 | 0.00 | 0.00 | 81 | 1019.5 | |
| 20260507154531 | 59 | 0.0 | 0.0 | 0.00 | 0.00 | 0.00 | 82 | 1019.3 | |
| 20260507154027 | 59 | 0.0 | 0.0 | 0.00 | 0.00 | 0.00 | 82 | 1019.7 | |
| 20260507153526 | 59 | 0.0 | 0.0 | 0.00 | 0.00 | 0.00 | 81 | 1019.6 | |
| 20260507153023 | 59 | 0.0 | 0.0 | 0.00 | 0.00 | 0.00 | 81 | 1019.2 | |
| 20260507152521 | 59 | 0.0 | 0.0 | 0.00 | 0.00 | 0.00 | 81 | 1019.8 | |
| 20260507152017 | 59 | 0.0 | 2.0 | 0.00 | 0.00 | 0.00 | 82 | 1019.6 | |
| 20260507151516 | 59 | 0.0 | 3.0 | 0.00 | 0.00 | 0.00 | 82 | 1019.8 | |
| 20260507151013 | 59 | 0.0 | 3.0 | 0.00 | 0.00 | 0.00 | 83 | 1018.9 | |
| 20260507150510 | 59 | 0.0 | 3.0 | 0.00 | 0.00 | 0.00 | 83 | 1019.1 | |
| 20260507150007 | 58 | 0.0 | 4.0 | 0.00 | 0.00 | 0.00 | 83 | 1019.8 | |
| 20260507145505 | 58 | 0.0 | 4.0 | 0.00 | 0.00 | 0.00 | 84 | 1019.8 | |
| 20260507145003 | 58 | 0.0 | 4.0 | 0.00 | 0.00 | 0.00 | 84 | 1019.1 | |
| 20260507144500 | 58 | 0.0 | 4.0 | 0.00 | 0.00 | 0.00 | 85 | 1018.6 | |
| 20260507143957 | 58 | 0.0 | 4.0 | 0.00 | 0.00 | 0.00 | 86 | 1018.9 | |
| 20260507143455 | 58 | 0.0 | 1.0 | 0.00 | 0.00 | 0.00 | 87 | 1019.2 | |
| 20260507142953 | 58 | 0.0 | 5.0 | 0.00 | 0.00 | 0.00 | 88 | 1018.9 | |
| 20260507142450 | 58 | 8 | 1.0 | 6.0 | 0.00 | 0.00 | 0.00 | 88 | 1019.1 |
| 20260507141947 | 57 | 0.0 | 6.0 | 0.00 | 0.00 | 0.00 | 88 | 1019.0 | |
| 20260507141445 | 57 | 0.0 | 1.0 | 0.00 | 0.00 | 0.00 | 89 | 1019.0 | |
| 20260507140943 | 57 | 0.0 | 4.0 | 0.00 | 0.00 | 0.00 | 89 | 1019.0 | |
| 20260507140440 | 57 | 0.0 | 4.0 | 0.00 | 0.00 | 0.00 | 89 | 1019.0 | |
| 20260507135937 | 57 | 0.0 | 3.0 | 0.00 | 0.00 | 0.00 | 89 | 1019.0 | |
| 20260507135435 | 57 | 0.0 | 4.0 | 0.00 | 0.00 | 0.00 | 89 | 1018.9 | |
| 20260507134933 | 57 | 0.0 | 4.0 | 0.00 | 0.00 | 0.00 | 89 | 1018.7 | |
| 20260507134430 | 57 | 0.0 | 4.0 | 0.00 | 0.00 | 0.00 | 90 | 1018.5 | |
| 20260507133927 | 57 | 0.0 | 6.0 | 0.00 | 0.00 | 0.00 | 90 | 1018.7 | |
| 20260507133425 | 57 | 0.0 | 10.0 | 0.00 | 0.00 | 0.00 | 90 | 1018.4 | |
| 20260507132921 | 56 | 0.0 | 10.0 | 0.00 | 0.00 | 0.00 | 91 | 1018.5 | |
| 20260507132420 | 56 | 0.0 | 8.0 | 0.00 | 0.00 | 0.00 | 91 | 1018.7 | |
| 20260507131917 | 56 | 0.0 | 8.0 | 0.00 | 0.00 | 0.00 | 91 | 1018.6 | |
| 20260507131416 | 56 | 0.0 | 4.0 | 0.00 | 0.00 | 0.00 | 91 | 1018.5 | |
| 20260507130911 | 56 | 0.0 | 4.0 | 0.00 | 0.00 | 0.00 | 91 | 1018.7 | |
| 20260507130410 | 56 | 0.0 | 4.0 | 0.00 | 0.00 | 0.00 | 91 | 1018.7 | |
| 20260507125907 | 56 | 0.0 | 6.0 | 0.00 | 0.00 | 0.00 | 91 | 1018.7 | |
| 20260507125404 | 56 | 0.0 | 6.0 | 0.00 | 0.00 | 0.00 | 91 | 1018.6 | |
| 20260507124901 | 56 | 0.0 | 8.0 | 0.00 | 0.00 | 0.00 | 91 | 1018.6 | |
| 20260507124359 | 56 | 0.0 | 3.0 | 0.00 | 0.00 | 0.00 | 91 | 1018.6 | |
| 20260507123857 | 56 | 0.0 | 5.0 | 0.00 | 0.00 | 0.00 | 91 | 1018.7 | |
| 20260507123354 | 56 | 2 | 1.0 | 11.0 | 0.00 | 0.00 | 0.00 | 91 | 1018.8 |
| 20260507122851 | 56 | 359 | 1.0 | 11.0 | 0.00 | 0.00 | 0.00 | 90 | 1018.5 |
| 20260507122349 | 56 | 0.0 | 9.0 | 0.00 | 0.00 | 0.00 | 90 | 1018.2 | |
| 20260507121847 | 56 | 13 | 1.0 | 9.0 | 0.00 | 0.00 | 0.00 | 90 | 1018.2 |
| 20260507121344 | 56 | 330 | 1.0 | 9.0 | 0.00 | 0.00 | 0.00 | 90 | 1018.2 |
| 20260507120841 | 56 | 353 | 1.0 | 9.0 | 0.00 | 0.00 | 0.00 | 90 | 1018.0 |
| 20260507120339 | 56 | 1.0 | 9.0 | 0.00 | 0.00 | 0.00 | 90 | 1017.9 | |
| 20260507115837 | 56 | 350 | 1.0 | 9.0 | 0.00 | 0.00 | 0.00 | 90 | 1017.6 |
| 20260507115334 | 57 | 18 | 1.0 | 5.0 | 0.00 | 0.00 | 0.00 | 90 | 1017.6 |
| 20260507114831 | 57 | 0.0 | 5.0 | 0.00 | 0.00 | 0.00 | 89 | 1017.6 | |
| 20260507114329 | 57 | 0.0 | 8.0 | 0.00 | 0.00 | 0.00 | 89 | 1017.8 | |
| 20260507113827 | 57 | 3 | 1.0 | 8.0 | 0.00 | 0.00 | 0.00 | 90 | 1017.9 |
| 20260507113324 | 57 | 0.0 | 4.0 | 0.00 | 0.00 | 0.00 | 90 | 1018.0 | |
| 20260507112820 | 57 | 0.0 | 4.0 | 0.00 | 0.00 | 0.00 | 90 | 1017.9 | |
| 20260507112319 | 57 | 0.0 | 5.0 | 0.00 | 0.00 | 0.00 | 90 | 1017.7 | |
| 20260507111817 | 57 | 0.0 | 9.0 | 0.00 | 0.00 | 0.00 | 89 | 1017.7 | |
| 20260507111314 | 57 | 11 | 1.0 | 9.0 | 0.00 | 0.00 | 0.00 | 89 | 1017.6 |
| 20260507110810 | 57 | 0.0 | 3.0 | 0.00 | 0.00 | 0.00 | 89 | 1017.7 | |
| 20260507110309 | 57 | 0.0 | 1.0 | 0.00 | 0.00 | 0.00 | 89 | 1017.7 | |
| 20260507105806 | 57 | 0.0 | 3.0 | 0.00 | 0.00 | 0.00 | 89 | 1017.6 | |
| 20260507105306 | 57 | 0.0 | 5.0 | 0.00 | 0.00 | 0.00 | 89 | 1017.6 | |
| 20260507104800 | 57 | 0.0 | 5.0 | 0.00 | 0.00 | 0.00 | 89 | 1017.7 | |
| 20260507104258 | 57 | 0.0 | 5.0 | 0.00 | 0.00 | 0.00 | 89 | 1017.9 | |
| 20260507103754 | 57 | 29 | 1.0 | 6.0 | 0.00 | 0.00 | 0.00 | 88 | 1017.6 |
| 20260507103253 | 57 | 0.0 | 6.0 | 0.00 | 0.00 | 0.00 | 88 | 1017.3 | |
| 20260507102750 | 57 | 0.0 | 6.0 | 0.00 | 0.00 | 0.00 | 88 | 1017.2 | |
| 20260507102248 | 57 | 1.0 | 8.0 | 0.00 | 0.00 | 0.00 | 88 | 1017.4 | |
| 20260507101744 | 58 | 0.0 | 2.0 | 0.00 | 0.00 | 0.00 | 88 | 1017.8 | |
| 20260507101243 | 58 | 0.0 | 2.0 | 0.00 | 0.00 | 0.00 | 88 | 1017.5 | |
| 20260507100740 | 58 | 0.0 | 1.0 | 0.00 | 0.00 | 0.00 | 88 | 1017.4 | |
| 20260507100238 | 58 | 0.0 | 1.0 | 0.00 | 0.00 | 0.00 | 88 | 1017.2 | |
| 20260507095734 | 58 | 0.0 | 4.0 | 0.00 | 0.00 | 0.00 | 88 | 1017.2 | |
| 20260507095233 | 58 | 0.0 | 4.0 | 0.00 | 0.00 | 0.00 | 88 | 1017.4 | |
| 20260507094730 | 58 | 0.0 | 2.0 | 0.00 | 0.00 | 0.00 | 88 | 1017.5 | |
| 20260507094228 | 58 | 0.0 | 0.0 | 0.00 | 0.00 | 0.00 | 88 | 1017.5 | |
| 20260507093725 | 57 | 0.0 | 3.0 | 0.00 | 0.00 | 0.00 | 88 | 1017.2 | |
| 20260507093223 | 57 | 0.0 | 3.0 | 0.00 | 0.00 | 0.00 | 88 | 1016.8 | |
| 20260507092721 | 57 | 0.0 | 3.0 | 0.00 | 0.00 | 0.00 | 88 | 1016.8 | |
| 20260507092218 | 57 | 0.0 | 0.0 | 0.00 | 0.00 | 0.00 | 88 | 1017.1 | |
| 20260507091714 | 57 | 0.0 | 2.0 | 0.00 | 0.00 | 0.00 | 88 | 1017.2 | |
| 20260507091213 | 57 | 0.0 | 2.0 | 0.00 | 0.00 | 0.00 | 88 | 1016.9 | |
| 20260507090710 | 57 | 0.0 | 4.0 | 0.00 | 0.00 | 0.00 | 88 | 1016.5 | |
| 20260507090208 | 57 | 0.0 | 4.0 | 0.00 | 0.00 | 0.00 | 88 | 1016.6 | |
| 20260507085704 | 58 | 0.0 | 3.0 | 0.00 | 0.00 | 0.00 | 88 | 1016.6 | |
| 20260507085203 | 58 | 0.0 | 3.0 | 0.00 | 0.00 | 0.00 | 88 | 1016.6 | |
| 20260507084700 | 58 | 0.0 | 1.0 | 0.00 | 0.00 | 0.00 | 88 | 1016.3 | |
| 20260507084157 | 58 | 0.0 | 2.0 | 0.00 | 0.00 | 0.00 | 88 | 1016.6 | |
| 20260507083654 | 58 | 0.0 | 2.0 | 0.00 | 0.00 | 0.00 | 88 | 1016.4 | |
| 20260507083152 | 58 | 0.0 | 0.0 | 0.00 | 0.00 | 0.00 | 87 | 1016.1 | |
| 20260507082650 | 58 | 0.0 | 2.0 | 0.00 | 0.00 | 0.00 | 87 | 1016.2 | |
| 20260507082147 | 58 | 0.0 | 2.0 | 0.00 | 0.00 | 0.00 | 87 | 1016.2 | |
| 20260507081644 | 58 | 0.0 | 0.0 | 0.00 | 0.00 | 0.00 | 87 | 1016.2 | |
| 20260507081142 | 58 | 0.0 | 0.0 | 0.00 | 0.00 | 0.00 | 87 | 1016.2 | |
| 20260507080640 | 58 | 0.0 | 2.0 | 0.00 | 0.00 | 0.00 | 87 | 1016.3 | |
| 20260507080137 | 58 | 0.0 | 2.0 | 0.00 | 0.00 | 0.00 | 87 | 1015.6 | |
| 20260507075634 | 58 | 0.0 | 0.0 | 0.00 | 0.00 | 0.00 | 87 | 1015.6 | |
| 20260507075132 | 58 | 0.0 | 0.0 | 0.00 | 0.00 | 0.00 | 87 | 1015.8 | |
| 20260507074628 | 58 | 0.0 | 1.0 | 0.00 | 0.00 | 0.00 | 87 | 1015.9 | |
| 20260507074127 | 58 | 0.0 | 2.0 | 0.00 | 0.00 | 0.00 | 86 | 1015.6 | |
| 20260507073624 | 58 | 0.0 | 4.0 | 0.00 | 0.00 | 0.00 | 86 | 1015.3 | |
| 20260507073122 | 58 | 0.0 | 4.0 | 0.00 | 0.00 | 0.00 | 86 | 1015.3 | |
| 20260507072618 | 58 | 0.0 | 3.0 | 0.00 | 0.00 | 0.00 | 86 | 1015.5 | |
| 20260507072117 | 58 | 0.0 | 3.0 | 0.00 | 0.00 | 0.00 | 86 | 1015.7 | |
| 20260507071614 | 58 | 0.0 | 0.0 | 0.00 | 0.00 | 0.00 | 86 | 1015.8 | |
| 20260507071112 | 58 | 0.0 | 4.0 | 0.00 | 0.00 | 0.00 | 86 | 1015.7 | |
| 20260507070608 | 58 | 0.0 | 4.0 | 0.00 | 0.00 | 0.00 | 85 | 1015.7 | |
| 20260507070107 | 58 | 0.0 | 0.0 | 0.00 | 0.00 | 0.00 | 85 | 1015.8 | |
| 20260507065604 | 59 | 0.0 | 0.0 | 0.00 | 0.00 | 0.00 | 85 | 1015.5 | |
| 20260507065102 | 59 | 0.0 | 2.0 | 0.00 | 0.00 | 0.00 | 85 | 1015.3 | |
| 20260507064558 | 59 | 0.0 | 2.0 | 0.00 | 0.00 | 0.00 | 85 | 1015.4 | |
| 20260507064057 | 59 | 0.0 | 0.0 | 0.00 | 0.00 | 0.00 | 84 | 1015.4 | |
| 20260507063554 | 59 | 0.0 | 0.0 | 0.00 | 0.00 | 0.00 | 84 | 1015.6 | |
| 20260507063052 | 59 | 0.0 | 0.0 | 0.00 | 0.00 | 0.00 | 84 | 1015.5 | |
| 20260507062548 | 59 | 0.0 | 4.0 | 0.00 | 0.00 | 0.00 | 84 | 1015.5 | |
| 20260507062046 | 59 | 0.0 | 4.0 | 0.00 | 0.00 | 0.00 | 84 | 1015.8 | |
| 20260507061544 | 59 | 0.0 | 3.0 | 0.00 | 0.00 | 0.00 | 84 | 1015.8 | |
| 20260507061041 | 59 | 0.0 | 4.0 | 0.00 | 0.00 | 0.00 | 83 | 1015.8 | |
| 20260507060538 | 59 | 0.0 | 4.0 | 0.00 | 0.00 | 0.00 | 83 | 1016.1 | |
| 20260507060036 | 59 | 0.0 | 1.0 | 0.00 | 0.00 | 0.00 | 83 | 1015.8 | |
| 20260507055534 | 59 | 0.0 | 1.0 | 0.00 | 0.00 | 0.00 | 83 | 1015.5 | |
| 20260507055031 | 59 | 0.0 | 0.0 | 0.00 | 0.00 | 0.00 | 83 | 1015.6 | |
| 20260507054528 | 59 | 0.0 | 2.0 | 0.00 | 0.00 | 0.00 | 83 | 1015.7 | |
| 20260507054026 | 59 | 0.0 | 2.0 | 0.00 | 0.00 | 0.00 | 84 | 1015.5 | |
| 20260507053524 | 60 | 0.0 | 2.0 | 0.00 | 0.00 | 0.00 | 84 | 1015.3 | |
| 20260507053021 | 60 | 0.0 | 2.0 | 0.00 | 0.00 | 0.00 | 84 | 1015.3 | |
| 20260507052518 | 60 | 0.0 | 1.0 | 0.00 | 0.00 | 0.00 | 84 | 1015.6 | |
| 20260507052016 | 60 | 0.0 | 2.0 | 0.00 | 0.00 | 0.00 | 84 | 1015.7 | |
| 20260507051512 | 60 | 0.0 | 2.0 | 0.00 | 0.00 | 0.00 | 84 | 1015.6 | |
| 20260507051011 | 60 | 0.0 | 0.0 | 0.00 | 0.00 | 0.00 | 84 | 1015.7 | |
| 20260507050508 | 60 | 0.0 | 4.0 | 0.00 | 0.00 | 0.00 | 83 | 1015.6 | |
| 20260507050006 | 60 | 0.0 | 4.0 | 0.00 | 0.00 | 0.00 | 83 | 1015.5 | |
| 20260507045504 | 60 | 0.0 | 1.0 | 0.00 | 0.00 | 0.00 | 83 | 1015.8 | |
| 20260507045001 | 60 | 0.0 | 1.0 | 0.00 | 0.00 | 0.00 | 83 | 1015.6 | |
| 20260507044458 | 60 | 0.0 | 3.0 | 0.00 | 0.00 | 0.00 | 83 | 1015.6 | |
| 20260507043956 | 60 | 0.0 | 3.0 | 0.00 | 0.00 | 0.00 | 83 | 1015.4 | |
| 20260507043452 | 60 | 0.0 | 2.0 | 0.00 | 0.00 | 0.00 | 83 | 1015.8 | |
| 20260507042951 | 60 | 0.0 | 3.0 | 0.00 | 0.00 | 0.00 | 83 | 1015.7 | |
| 20260507042448 | 60 | 0.0 | 3.0 | 0.00 | 0.00 | 0.00 | 83 | 1015.6 | |
| 20260507041945 | 60 | 0.0 | 1.0 | 0.00 | 0.00 | 0.00 | 83 | 1015.7 | |
| 20260507041442 | 60 | 0.0 | 1.0 | 0.00 | 0.00 | 0.00 | 83 | 1015.8 | |
| 20260507040940 | 60 | 0.0 | 0.0 | 0.00 | 0.00 | 0.00 | 83 | 1015.9 | |
| 20260507040438 | 60 | 0.0 | 1.0 | 0.00 | 0.00 | 0.00 | 83 | 1016.0 | |
| 20260507035935 | 60 | 0.0 | 1.0 | 0.00 | 0.00 | 0.00 | 83 | 1016.1 | |
| 20260507035432 | 60 | 0.0 | 2.0 | 0.00 | 0.00 | 0.00 | 83 | 1015.7 | |
| 20260507034930 | 60 | 0.0 | 2.0 | 0.00 | 0.00 | 0.00 | 84 | 1015.3 | |
| 20260507034428 | 61 | 0.0 | 1.0 | 0.00 | 0.00 | 0.00 | 84 | 1015.5 | |
| 20260507033925 | 61 | 0.0 | 1.0 | 0.00 | 0.00 | 0.00 | 84 | 1015.5 | |
| 20260507033422 | 61 | 0.0 | 1.0 | 0.00 | 0.00 | 0.00 | 84 | 1015.5 | |
| 20260507032920 | 61 | 0.0 | 1.0 | 0.00 | 0.00 | 0.00 | 84 | 1015.6 | |
| 20260507032417 | 60 | 0.0 | 6.0 | 0.00 | 0.00 | 0.00 | 84 | 1015.5 | |
| 20260507031915 | 61 | 0.0 | 6.0 | 0.00 | 0.00 | 0.00 | 84 | 1015.1 | |
| 20260507031412 | 61 | 0.0 | 3.0 | 0.00 | 0.00 | 0.00 | 85 | 1015.0 | |
| 20260507030910 | 61 | 0.0 | 5.0 | 0.00 | 0.00 | 0.00 | 85 | 1015.1 | |
| 20260507030407 | 61 | 0.0 | 2.0 | 0.00 | 0.00 | 0.00 | 85 | 1014.9 | |
| 20260507025905 | 61 | 0.0 | 3.0 | 0.00 | 0.00 | 0.00 | 85 | 1015.3 | |
| 20260507025402 | 61 | 0.0 | 4.0 | 0.00 | 0.00 | 0.00 | 85 | 1015.4 | |
| 20260507024900 | 60 | 0.0 | 4.0 | 0.00 | 0.00 | 0.00 | 85 | 1015.4 | |
| 20260507024357 | 60 | 0.0 | 4.0 | 0.00 | 0.00 | 0.00 | 85 | 1015.4 | |
| 20260507023855 | 60 | 0.0 | 4.0 | 0.00 | 0.00 | 0.00 | 85 | 1015.2 | |
| 20260507023351 | 60 | 0.0 | 4.0 | 0.00 | 0.00 | 0.00 | 85 | 1014.9 | |
| 20260507022850 | 60 | 0.0 | 4.0 | 0.00 | 0.00 | 0.00 | 85 | 1014.9 | |
| 20260507022347 | 60 | 0.0 | 4.0 | 0.00 | 0.00 | 0.00 | 85 | 1014.9 | |
| 20260507021844 | 60 | 0.0 | 2.0 | 0.00 | 0.00 | 0.00 | 85 | 1014.9 | |
| 20260507021341 | 60 | 0.0 | 5.0 | 0.00 | 0.00 | 0.00 | 84 | 1014.9 | |
| 20260507020839 | 60 | 0.0 | 5.0 | 0.00 | 0.00 | 0.00 | 84 | 1014.9 | |
| 20260507020317 | 60 | 0.0 | 3.0 | 0.00 | 0.00 | 0.00 | 84 | 1014.8 | |
| 20260507015815 | 60 | 0.0 | 3.0 | 0.00 | 0.00 | 0.00 | 84 | 1014.7 | |
| 20260507015313 | 60 | 0.0 | 0.0 | 0.00 | 0.00 | 0.00 | 84 | 1014.6 | |
| 20260507014809 | 60 | 0.0 | 1.0 | 0.00 | 0.00 | 0.00 | 84 | 1014.3 | |
| 20260507014307 | 60 | 0.0 | 1.0 | 0.00 | 0.00 | 0.00 | 84 | 1014.3 | |
| 20260507013805 | 60 | 0.0 | 3.0 | 0.00 | 0.00 | 0.00 | 84 | 1014.3 | |
| 20260507013303 | 60 | 0.0 | 3.0 | 0.00 | 0.00 | 0.00 | 84 | 1014.2 | |
| 20260507012759 | 60 | 0.0 | 1.0 | 0.00 | 0.00 | 0.00 | 84 | 1013.9 | |
| 20260507012257 | 60 | 0.0 | 0.0 | 0.00 | 0.00 | 0.00 | 84 | 1013.7 | |
| 20260507011755 | 60 | 0.0 | 0.0 | 0.00 | 0.00 | 0.00 | 84 | 1013.9 | |
| 20260507010749 | 61 | 0.0 | 2.0 | 0.00 | 0.00 | 0.00 | 84 | 1013.8 | |
| 20260507010247 | 61 | 0.0 | 2.0 | 0.00 | 0.00 | 0.00 | 84 | 1013.5 | |
| 20260507005745 | 61 | 0.0 | 3.0 | 0.00 | 0.00 | 0.00 | 83 | 1013.6 | |
| 20260507005243 | 61 | 0.0 | 3.0 | 0.00 | 0.00 | 0.00 | 83 | 1013.2 | |
| 20260507004739 | 61 | 0.0 | 4.0 | 0.00 | 0.00 | 0.00 | 83 | 1013.2 | |
| 20260507004237 | 61 | 0.0 | 4.0 | 0.00 | 0.00 | 0.00 | 83 | 1013.5 | |
| 20260507003735 | 61 | 0.0 | 2.0 | 0.00 | 0.00 | 0.00 | 83 | 1013.4 | |
| 20260507003233 | 61 | 0.0 | 3.0 | 0.00 | 0.00 | 0.00 | 83 | 1013.2 | |
| 20260507002729 | 61 | 0.0 | 3.0 | 0.00 | 0.00 | 0.00 | 83 | 1013.0 | |
| 20260507002227 | 61 | 0.0 | 2.0 | 0.00 | 0.00 | 0.00 | 83 | 1013.2 | |
| 20260507001725 | 61 | 0.0 | 1.0 | 0.00 | 0.00 | 0.00 | 83 | 1013.1 | |
| 20260507001223 | 61 | 0.0 | 2.0 | 0.00 | 0.00 | 0.00 | 82 | 1013.1 | |
| 20260507000719 | 61 | 0.0 | 2.0 | 0.00 | 0.00 | 0.00 | 82 | 1013.0 | |
| 20260507000219 | 61 | 0.0 | 3.0 | 0.00 | 0.00 | 0.00 | 82 | 1013.2 | |
| 20260506235715 | 61 | 0.0 | 4.0 | 0.00 | 0.00 | 0.00 | 82 | 1013.1 | |
| 20260506235213 | 61 | 0.0 | 4.0 | 0.00 | 0.00 | 0.00 | 82 | 1013.1 | |
| 20260506234709 | 62 | 0.0 | 5.0 | 0.00 | 0.00 | 0.00 | 82 | 1013.1 | |
| 20260506234207 | 61 | 0.0 | 5.0 | 0.00 | 0.00 | 0.00 | 83 | 1013.0 | |
| 20260506233705 | 61 | 0.0 | 3.0 | 0.00 | 0.00 | 0.00 | 82 | 1012.7 | |
| 20260506233205 | 61 | 0.0 | 3.0 | 0.00 | 0.00 | 0.00 | 82 | 1012.9 | |
| 20260506232659 | 61 | 0.0 | 5.0 | 0.00 | 0.00 | 0.00 | 82 | 1013.0 | |
| 20260506232157 | 61 | 0.0 | 9.0 | 0.00 | 0.00 | 0.00 | 82 | 1012.9 | |
| 20260506231653 | 61 | 0.0 | 9.0 | 0.00 | 0.00 | 0.00 | 81 | 1013.4 | |
| 20260506231151 | 61 | 0.0 | 11.0 | 0.00 | 0.00 | 0.00 | 81 | 1013.2 | |
| 20260506230649 | 62 | 328 | 1.0 | 11.0 | 0.00 | 0.00 | 0.00 | 82 | 1013.0 |
| 20260506230147 | 62 | 0.0 | 5.0 | 0.00 | 0.00 | 0.00 | 81 | 1012.7 | |
| 20260506225643 | 62 | 0.0 | 4.0 | 0.00 | 0.00 | 0.00 | 82 | 1013.1 | |
| 20260506225141 | 61 | 0.0 | 5.0 | 0.00 | 0.00 | 0.00 | 82 | 1012.6 | |
| 20260506224639 | 61 | 0.0 | 5.0 | 0.00 | 0.00 | 0.00 | 83 | 1013.0 | |
| 20260506224137 | 61 | 0.0 | 8.0 | 0.00 | 0.00 | 0.00 | 83 | 1012.9 | |
| 20260506223633 | 61 | 15 | 1.0 | 8.0 | 0.00 | 0.00 | 0.00 | 83 | 1012.8 |
| 20260506223131 | 61 | 0.0 | 4.0 | 0.00 | 0.00 | 0.00 | 83 | 1012.7 | |
| 20260506222629 | 61 | 4 | 1.0 | 6.0 | 0.00 | 0.00 | 0.00 | 83 | 1012.8 |
| 20260506222127 | 61 | 0.0 | 11.0 | 0.00 | 0.00 | 0.00 | 84 | 1012.5 | |
| 20260506221623 | 60 | 341 | 2.0 | 11.0 | 0.00 | 0.00 | 0.00 | 84 | 1012.8 |
| 20260506221121 | 60 | 1.0 | 4.0 | 0.00 | 0.00 | 0.00 | 84 | 1012.8 | |
| 20260506220619 | 60 | 1.0 | 6.0 | 0.00 | 0.00 | 0.00 | 84 | 1013.0 | |
| 20260506220117 | 60 | 0.0 | 3.0 | 0.00 | 0.00 | 0.00 | 84 | 1013.0 | |
| 20260506215613 | 60 | 0.0 | 5.0 | 0.00 | 0.00 | 0.00 | 84 | 1012.9 | |
| 20260506215111 | 60 | 0.0 | 10.0 | 0.00 | 0.00 | 0.00 | 84 | 1012.8 | |
| 20260506214609 | 59 | 20 | 1.0 | 10.0 | 0.00 | 0.00 | 0.00 | 84 | 1012.8 |
| 20260506214107 | 60 | 29 | 1.0 | 9.0 | 0.00 | 0.00 | 0.00 | 84 | 1012.7 |
| 20260506213603 | 60 | 14 | 1.0 | 10.0 | 0.00 | 0.00 | 0.00 | 83 | 1012.8 |
| 20260506213101 | 60 | 32 | 2.0 | 10.0 | 0.00 | 0.00 | 0.00 | 84 | 1012.9 |
| 20260506212559 | 60 | 0.0 | 8.0 | 0.00 | 0.00 | 0.00 | 84 | 1013.0 | |
| 20260506212057 | 60 | 0.0 | 10.0 | 0.00 | 0.00 | 0.00 | 84 | 1013.1 | |
| 20260506211553 | 60 | 0.0 | 10.0 | 0.00 | 0.00 | 0.00 | 83 | 1013.1 | |
| 20260506211051 | 60 | 2 | 2.0 | 10.0 | 0.00 | 0.00 | 0.00 | 83 | 1013.1 |
| 20260506210549 | 60 | 6 | 2.0 | 10.0 | 0.00 | 0.00 | 0.00 | 83 | 1013.2 |
| 20260506210047 | 60 | 351 | 2.0 | 12.0 | 0.00 | 0.00 | 0.00 | 83 | 1013.1 |
| 20260506205543 | 60 | 8 | 4.0 | 11.0 | 0.00 | 0.00 | 0.00 | 83 | 1013.1 |
| 20260506205041 | 60 | 348 | 3.0 | 11.0 | 0.00 | 0.00 | 0.00 | 82 | 1013.2 |
| 20260506204539 | 61 | 10 | 2.0 | 8.0 | 0.00 | 0.00 | 0.00 | 83 | 1013.2 |
| 20260506204035 | 60 | 1.0 | 8.0 | 0.00 | 0.00 | 0.00 | 83 | 1013.1 | |
| 20260506203533 | 60 | 22 | 2.0 | 9.0 | 0.00 | 0.00 | 0.00 | 83 | 1013.2 |
| 20260506203031 | 61 | 7 | 2.0 | 9.0 | 0.00 | 0.00 | 0.00 | 82 | 1013.3 |
| 20260506202527 | 61 | 0.0 | 8.0 | 0.00 | 0.00 | 0.00 | 82 | 1013.3 | |
| 20260506202025 | 61 | 21 | 1.0 | 7.0 | 0.00 | 0.00 | 0.00 | 83 | 1013.3 |
| 20260506201523 | 60 | 17 | 1.0 | 13.0 | 0.00 | 0.00 | 0.00 | 83 | 1013.0 |
| 20260506201021 | 60 | 4 | 2.0 | 13.0 | 0.00 | 0.00 | 0.00 | 83 | 1013.1 |
| 20260506200517 | 60 | 23 | 1.0 | 11.0 | 0.00 | 0.00 | 0.00 | 83 | 1013.1 |
| 20260506200015 | 61 | 1 | 2.0 | 10.0 | 0.00 | 0.00 | 0.00 | 82 | 1013.2 |
| 20260506195513 | 61 | 359 | 2.0 | 10.0 | 0.00 | 0.00 | 0.00 | 81 | 1013.2 |
| 20260506195011 | 62 | 16 | 1.0 | 11.0 | 0.00 | 0.00 | 0.00 | 82 | 1013.2 |
| 20260506194507 | 62 | 10 | 3.0 | 11.0 | 0.00 | 0.00 | 0.00 | 81 | 1013.2 |
| 20260506194005 | 62 | 3 | 1.0 | 11.0 | 0.00 | 0.00 | 0.00 | 81 | 1013.1 |
| 20260506193503 | 62 | 358 | 1.0 | 11.0 | 0.00 | 0.00 | 0.00 | 82 | 1013.0 |
| 20260506193002 | 62 | 315 | 2.0 | 12.0 | 0.00 | 0.00 | 0.00 | 81 | 1013.1 |